Location: ActonStarParty
(42.4766°N, 71.4538°W)
Time: 18:16:33
(UTC-04:00)

ATLAS 5 CENTAUR R/B - Visible Passes

Search period start: 16 October 2017 00:00
Search period end: 26 October 2017 00:00
Orbit: 310 x 14412 km, 60.9° (Epoch: 25 July)

Date Brightness Start Highest point End Pass type
(mag) Time Alt. Az. Time Alt. Az. Time Alt. Az.
16 Oct 6.2 03:10:40 10° SE 03:19:37 27° E 03:46:24 10° NE visible
16 Oct 8.8 17:16:31 10° NW 18:06:38 27° WNW 19:16:24 10° WSW visible
17 Oct 5.7 05:52:30 10° SW 06:03:14 82° NW 07:12:50 10° NE visible
18 Oct 5.6 04:06:17 12° S 04:14:46 53° ESE 04:57:07 10° NE visible
18 Oct 9.2 18:29:49 10° NW 18:56:29 14° WNW 19:29:09 10° WNW visible
19 Oct 6.4 02:23:49 10° ESE 02:32:07 19° ENE 02:51:01 10° NE visible
19 Oct 8.6 16:23:31 10° NW 17:19:35 33° WNW 18:38:49 10° WSW visible
20 Oct 5.5 05:03:43 14° SSW 05:12:47 86° SE 06:12:12 10° NE visible
21 Oct 5.7 03:18:54 18° SSE 03:26:13 40° E 04:01:23 10° NE visible
21 Oct 8.9 17:31:16 10° NW 18:10:28 19° WNW 19:02:51 10° W visible
22 Oct 6.7 01:39:01 10° E 01:44:52 13° ENE 01:53:52 10° NE visible
22 Oct 5.7 06:01:31 10° WSW 06:13:56 70° NNW 07:37:46 10° ENE visible
23 Oct 5.2 04:16:15 28° SSW 04:22:51 72° ESE 05:13:38 10° NE visible
24 Oct 5.9 02:31:24 19° SE 02:38:04 30° E 03:06:01 10° NE visible
24 Oct 8.7 16:36:18 10° NW 17:23:52 25° WNW 18:30:23 10° WSW visible
25 Oct 5.3 05:13:34 23° SW 05:22:31 78° NW 06:33:30 10° NE visible
